Location: Unnamed
(47.6264°N, 122.3366°W)
Time: 12:51:15
(UTC-07:00)

UPPER FREE FLYER - Pass Details

Date: 08 August 2020
Orbit: 571 x 589 km, 97.7° (Epoch: 01 October)

Event Time Altitude Azimuth Distance (km) Brightness Sun altitude
Exits shadow 22:10:21 22° 110° (ESE) 1,262 ? -14.5°
Maximum altitude 22:12:04 31° 68° (ENE) 1,014 ? -14.7°
Drops below altitude 10° 22:15:42 10° 5° (N) 1,897 ? -15.1°
Sets 22:18:02 0° 356° (N) 2,803 ? -15.4°
